{"data":{"norad_id":50504,"intl_designator":"2021-132AM","name":"ONEWEB-0450","alt_names":[],"object_type":"PAYLOAD","status":"ACTIVE","operator":null,"country":"UK","launch_date":"2021-12-27","launch_site_code":"TYMSC","launch_vehicle":null,"mission":null,"orbit_class":"UNKNOWN","rcs_meters":null,"size_class":null,"mass_kg":null,"dimensions":null,"purposes":["comms"],"wikipedia_slug":null,"has_3d_model":false,"image_url":null,"decayed_at":null,"tle_current":{"epoch":"2026-09-19T23:01:03.127008Z","epoch_age_seconds":72618,"freshness":"FRESH","line1":"1 50504U 21132AM  26262.95906397  .00000067  00000+0  13791-3 0  9995","line2":"2 50504  87.9164 316.6237 0001854  91.9666 268.1678 13.18686864234091","mean_motion":13.18686864,"eccentricity":0.0001854,"inclination_deg":87.9164,"raan_deg":316.6237,"arg_perigee_deg":91.9666,"mean_anomaly_deg":268.1678,"bstar":0.00013791,"rev_number":23409,"period_min":109.19954079409,"perigee_km":1188.3367368678,"apogee_km":1191.1429055931,"semimajor_km":7567.8768212305,"source":"CELESTRAK","updated_at":"2026-09-20T09:00:44.707214Z"}}}